User: anonymous   Login
Location: Unspecified
(0.0000°N, 0.0000°E)
Time: 15:07:24
(UTC+00:00)
Language:

SAR-Lupe-1 - Orbit

View from above orbital plane
View from above orbital plane
View from above satellite
View from above satellite

Ground track
Ground track

The orbit data is extracted from the following two-line orbital elements,

1 29658U 06060A   18141.93768289 0.00001200  00000-0  44419-4 0    01
2 29658  98.1138 228.2966 0004000 324.1819  35.8179 15.27695024    03
Epoch (UTC): 21 May 2018 22:30:15
Eccentricity: 0.0004000
inclination: 98.1138°
perigee height: 480 km
apogee height: 485 km
right ascension of ascending node: 228.2966°
argument of perigee: 324.1819°
revolutions per day: 15.27695024
mean anomaly at epoch: 35.8179°
orbit number at epoch: 0

The dashed part of the orbit path shows where the satellite is in the earth's shadow,  

DLR